{"data":{"norad_id":46060,"intl_designator":"2020-055AK","name":"STARLINK-1572","alt_names":[],"object_type":"PAYLOAD","status":"ACTIVE","operator":null,"country":"US","launch_date":"2020-08-07","launch_site_code":"AFETR","launch_vehicle":null,"mission":null,"orbit_class":"UNKNOWN","rcs_meters":null,"size_class":null,"mass_kg":null,"dimensions":null,"purposes":["comms"],"wikipedia_slug":null,"has_3d_model":false,"image_url":null,"decayed_at":null,"tle_current":{"epoch":"2026-05-25T05:06:34.177248Z","epoch_age_seconds":59869,"freshness":"FRESH","line1":"1 46060U 20055AK  26145.21289557 -.00001134  00000+0 -26201-4 0  9990","line2":"2 46060  53.1586 118.6729 0000906  81.8124 278.2979 15.30177323320752","mean_motion":15.30177323,"eccentricity":9.06e-5,"inclination_deg":53.1586,"raan_deg":118.6729,"arg_perigee_deg":81.8124,"mean_anomaly_deg":278.2979,"bstar":-2.6201e-5,"rev_number":32075,"period_min":94.10674033365,"perigee_km":474.66185985793,"apogee_km":475.90369952201,"semimajor_km":6853.41977969,"source":"CELESTRAK","updated_at":"2026-05-25T13:38:16.462788Z"}}}